When you browse on this site, cookies collect data to enhance your experience and personalize the content and advertising you see.
Visit our Privacy Policy to learn more. By continuing to use the site, you agree to this use of cookies and data.
  • In Romania
  • List of Countries
  • For 7 days
  • Water Temperature
  • Satellite Maps
  • Weather Map
  • Weather Widgets
  • user-avatar
    Login

    Hourly Weather Parczew

    Today, 22 May, Wednesday

    Time Temperature Precipitation Wind Pressure Humidity
    00:00 +12°C° 0 mm 5 mps 740 mmHg 87%
    01:00 +12°C° 0 mm 5 mps 740 mmHg 88%
    02:00 +12°C° 0 mm 5 mps 739 mmHg 89%
    03:00 +12°C° 0 mm 5 mps 739 mmHg 89%
    04:00 +12°C° 0 mm 5 mps 739 mmHg 89%
    05:00 +12°C° 0 mm 5 mps 740 mmHg 89%
    06:00 +13°C° 0.2 mm 5 mps 740 mmHg 90%
    07:00 +13°C° 0.2 mm 5 mps 740 mmHg 91%
    08:00 +13°C° 0 mm 5 mps 739 mmHg 91%
    09:00 +14°C° 0.2 mm 5 mps 740 mmHg 90%
    10:00 +14°C° 0.2 mm 5 mps 740 mmHg 88%
    11:00 +15°C° 0.2 mm 5 mps 740 mmHg 87%
    12:00 +16°C° 0.2 mm 5 mps 740 mmHg 83%
    13:00 +17°C° 0.2 mm 5 mps 740 mmHg 78%
    14:00 +19°C° 0.2 mm 5 mps 740 mmHg 74%
    15:00 +20°C° 0.6 mm 4 mps 740 mmHg 75%
    16:00 +20°C° 0.6 mm 4 mps 740 mmHg 76%
    17:00 +20°C° 0.6 mm 4 mps 740 mmHg 77%
    18:00 +19°C° 0.1 mm 3 mps 740 mmHg 82%
    19:00 +17°C° 0.1 mm 3 mps 740 mmHg 87%
    20:00 +16°C° 0.1 mm 3 mps 740 mmHg 91%
    21:00 +15°C° 0 mm 2 mps 741 mmHg 92%
    22:00 +15°C° 0 mm 2 mps 741 mmHg 94%
    23:00 +14°C° 0 mm 2 mps 741 mmHg 95%

    Tomorrow, 23 May, Thursday

    Time Temperature Precipitation Wind Pressure Humidity
    00:00 +13°C° 0 mm 1 mps 741 mmHg 95%
    01:00 +13°C° 0 mm 1 mps 742 mmHg 95%
    02:00 +13°C° 0 mm 1 mps 742 mmHg 95%
    03:00 +12°C° 0 mm 1 mps 742 mmHg 95%
    04:00 +12°C° 0 mm 1 mps 742 mmHg 95%
    05:00 +12°C° 0 mm 1 mps 742 mmHg 95%
    06:00 +14°C° 0 mm 1 mps 743 mmHg 91%
    07:00 +15°C° 0 mm 1 mps 743 mmHg 87%
    08:00 +16°C° 0 mm 0 mps 743 mmHg 83%
    09:00 +19°C° 0.1 mm 1 mps 743 mmHg 78%
    10:00 +20°C° 0.1 mm 1 mps 744 mmHg 73%
    11:00 +20°C° 0.1 mm 2 mps 744 mmHg 68%
    12:00 +21°C° 0.7 mm 2 mps 744 mmHg 67%
    13:00 +23°C° 0.7 mm 2 mps 744 mmHg 66%
    14:00 +23°C° 0.7 mm 2 mps 743 mmHg 65%
    15:00 +23°C° 1.5 mm 2 mps 743 mmHg 67%
    16:00 +23°C° 1.5 mm 2 mps 743 mmHg 69%
    17:00 +23°C° 1.5 mm 1 mps 743 mmHg 71%
    18:00 +20°C° 1.6 mm 2 mps 743 mmHg 76%
    19:00 +19°C° 1.6 mm 2 mps 744 mmHg 81%
    20:00 +18°C° 1.6 mm 3 mps 744 mmHg 86%
    21:00 +17°C° 0.7 mm 3 mps 744 mmHg 89%
    22:00 +17°C° 0.7 mm 3 mps 744 mmHg 92%
    23:00 +15°C° 0.7 mm 4 mps 745 mmHg 95%

    Day after tomorrow, 24 May, Friday

    Time Temperature Precipitation Wind Pressure Humidity
    00:00 +15°C° 0.1 mm 4 mps 745 mmHg 95%
    01:00 +14°C° 0.1 mm 5 mps 745 mmHg 96%
    02:00 +14°C° 0.1 mm 5 mps 745 mmHg 96%
    03:00 +13°C° 0.1 mm 5 mps 745 mmHg 96%
    04:00 +13°C° 0.1 mm 4 mps 745 mmHg 95%
    05:00 +12°C° 0.1 mm 4 mps 745 mmHg 95%
    06:00 +12°C° 0 mm 4 mps 745 mmHg 93%
    07:00 +13°C° 0 mm 4 mps 745 mmHg 92%
    08:00 +13°C° 0 mm 3 mps 745 mmHg 90%
    09:00 +14°C° 0 mm 3 mps 745 mmHg 86%
    10:00 +15°C° 0 mm 4 mps 745 mmHg 82%
    11:00 +18°C° 0 mm 4 mps 745 mmHg 78%
    12:00 +18°C° 0 mm 4 mps 745 mmHg 77%
    13:00 +19°C° 0 mm 4 mps 745 mmHg 77%
    14:00 +19°C° 0 mm 3 mps 745 mmHg 77%
    15:00 +20°C° 0.3 mm 4 mps 745 mmHg 77%
    16:00 +20°C° 0.3 mm 4 mps 744 mmHg 76%
    17:00 +20°C° 0.3 mm 4 mps 744 mmHg 76%
    18:00 +19°C° 0.3 mm 3 mps 744 mmHg 80%
    19:00 +18°C° 0.3 mm 3 mps 744 mmHg 84%
    20:00 +17°C° 0.3 mm 2 mps 744 mmHg 88%
    21:00 +16°C° 0 mm 3 mps 744 mmHg 89%
    22:00 +14°C° 0 mm 3 mps 744 mmHg 90%
    23:00 +13°C° 0 mm 3 mps 744 mmHg 91%

    25 May, Saturday

    Time Temperature Precipitation Wind Pressure Humidity
    00:00 +12°C° 0 mm 3 mps 744 mmHg 91%
    01:00 +12°C° 0 mm 3 mps 744 mmHg 92%
    02:00 +11°C° 0 mm 3 mps 744 mmHg 92%
    03:00 +10°C° 0 mm 3 mps 744 mmHg 91%
    04:00 +10°C° 0 mm 2 mps 744 mmHg 90%
    05:00 +9°C° 0 mm 2 mps 744 mmHg 90%
    06:00 +12°C° 0 mm 2 mps 744 mmHg 84%
    07:00 +14°C° 0 mm 2 mps 745 mmHg 79%
    08:00 +16°C° 0 mm 2 mps 745 mmHg 74%
    09:00 +17°C° 0 mm 3 mps 745 mmHg 71%
    10:00 +19°C° 0 mm 3 mps 745 mmHg 68%
    11:00 +20°C° 0 mm 3 mps 745 mmHg 64%
    12:00 +21°C° 0.1 mm 4 mps 744 mmHg 62%
    13:00 +21°C° 0.1 mm 4 mps 744 mmHg 61%
    14:00 +22°C° 0.1 mm 4 mps 744 mmHg 59%
    15:00 +21°C° 0.2 mm 4 mps 744 mmHg 63%
    16:00 +20°C° 0.2 mm 4 mps 744 mmHg 67%
    17:00 +20°C° 0.2 mm 5 mps 743 mmHg 71%
    18:00 +19°C° 0 mm 4 mps 743 mmHg 75%
    19:00 +18°C° 0 mm 3 mps 743 mmHg 79%
    20:00 +17°C° 0 mm 2 mps 744 mmHg 84%
    21:00 +16°C° 0 mm 2 mps 744 mmHg 86%
    22:00 +15°C° 0 mm 2 mps 744 mmHg 88%
    23:00 +14°C° 0 mm 2 mps 744 mmHg 91%

    26 May, Sunday

    Time Temperature Precipitation Wind Pressure Humidity
    00:00 +12°C° 0 mm 3 mps 744 mmHg 91%
    01:00 +11°C° 0 mm 3 mps 744 mmHg 91%
    02:00 +11°C° 0 mm 3 mps 744 mmHg 92%
    03:00 +11°C° 0 mm 3 mps 744 mmHg 93%
    04:00 +10°C° 0 mm 3 mps 744 mmHg 94%
    05:00 +10°C° 0 mm 3 mps 744 mmHg 95%
    06:00 +11°C° 0 mm 3 mps 744 mmHg 88%
    07:00 +12°C° 0 mm 4 mps 744 mmHg 82%
    08:00 +14°C° 0 mm 4 mps 744 mmHg 76%
    09:00 +15°C° 0 mm 5 mps 744 mmHg 72%
    10:00 +16°C° 0 mm 5 mps 744 mmHg 69%
    11:00 +17°C° 0 mm 5 mps 744 mmHg 65%
    12:00 +17°C° 0 mm 6 mps 744 mmHg 65%
    13:00 +17°C° 0 mm 6 mps 744 mmHg 65%
    14:00 +17°C° 0 mm 6 mps 743 mmHg 66%
    15:00 +16°C° 0.1 mm 6 mps 743 mmHg 66%
    16:00 +16°C° 0.1 mm 6 mps 743 mmHg 67%
    17:00 +15°C° 0.1 mm 6 mps 743 mmHg 67%
    18:00 +14°C° 0 mm 5 mps 743 mmHg 71%
    19:00 +13°C° 0 mm 4 mps 743 mmHg 74%
    20:00 +12°C° 0 mm 3 mps 743 mmHg 78%
    21:00 +11°C° 0 mm 3 mps 744 mmHg 80%
    22:00 +10°C° 0 mm 3 mps 744 mmHg 81%
    23:00 +9°C° 0 mm 3 mps 744 mmHg 83%

    27 May, Monday

    Time Temperature Precipitation Wind Pressure Humidity
    00:00 +7°C° 0 mm 4 mps 745 mmHg 83%
    01:00 +7°C° 0 mm 4 mps 745 mmHg 83%
    02:00 +6°C° 0 mm 4 mps 745 mmHg 83%
    03:00 +6°C° 0 mm 4 mps 745 mmHg 84%
    04:00 +6°C° 0 mm 4 mps 746 mmHg 85%
    05:00 +5°C° 0 mm 4 mps 746 mmHg 86%
    06:00 +7°C° 0 mm 4 mps 746 mmHg 80%
    07:00 +8°C° 0 mm 5 mps 746 mmHg 75%
    08:00 +10°C° 0 mm 5 mps 746 mmHg 69%
    09:00 +12°C° 0 mm 5 mps 746 mmHg 67%
    10:00 +13°C° 0 mm 5 mps 746 mmHg 65%
    11:00 +15°C° 0 mm 5 mps 746 mmHg 64%
    12:00 +17°C° 0 mm 4 mps 746 mmHg 60%
    13:00 +18°C° 0 mm 4 mps 746 mmHg 57%
    14:00 +19°C° 0 mm 4 mps 746 mmHg 54%
    15:00 +19°C° 0 mm 3 mps 746 mmHg 53%
    16:00 +19°C° 0 mm 2 mps 745 mmHg 52%
    17:00 +20°C° 0 mm 2 mps 745 mmHg 51%
    18:00 +18°C° 0 mm 2 mps 745 mmHg 57%
    19:00 +17°C° 0 mm 2 mps 744 mmHg 63%
    20:00 +16°C° 0 mm 2 mps 744 mmHg 69%
    21:00 +15°C° 0 mm 2 mps 744 mmHg 70%
    22:00 +14°C° 0 mm 3 mps 744 mmHg 72%
    23:00 +13°C° 0 mm 3 mps 743 mmHg 74%
    Show more